Location: Cactus School
(34.5700°N, 118.0931°W)
Time: 07:16:55
(UTC-08:00)

Tiros 1 - Pass Details

Date: 23 November 2019
Orbit: 630 x 664 km, 48.4° (Epoch: 14 December)

Event Time Altitude Azimuth Distance (km) Brightness Sun altitude
Rises 15:28:41 0° 306° (NW) 2,916 10.8 12.5°
Reaches altitude 10° 15:32:00 10° 330° (NNW) 2,009 9.7 12.0°
Maximum altitude 15:34:34 15° 4° (N) 1,727 9.0 11.5°
Drops below altitude 10° 15:37:09 10° 38° (NE) 2,014 9.1 11.1°
Sets 15:40:29 0° 63° (ENE) 2,927 9.9 10.5°
